Regional Weather Roundup
Issued by NWS Wakefield, VA

Home | Current Version | Previous Version | Graphics & Text | Print | Product List | Glossary On
Versions: 1 2 3 4 5 6 7 8 9 10 11 12 13 14 15 16 17 18 19 20 21 22 23 24 25 26 27 28 29 30 31 32 33 34 35 36 37 38 39 40 41 42 43 44 45 46 47 48 49 50
000
ASUS41 KAKQ 270610
RWRAKQ

REGIONAL WEATHER ROUNDUP
NATIONAL WEATHER SERVICE WAKEFIELD VA
200 AM EDT WED AUG 27 2014

Note: "fair" indicates few or no clouds below 12,000 feet with no
significant weather and/or obstructions to visibility. * = Denotes
station may not report precipitation (e.g., rain,snow,etc.),
thunder or fog.

VAZ042-051-052>054-056-270700-
NORTHERN VIRGINIA

CITY           SKY/WX    TMP DP  RH WIND       PRES   REMARKS
WASH NATIONAL  FAIR      73  65  75 CALM      30.07F
DULLES         FAIR      63  62  97 CALM      30.08F
FORT BELVOIR   FAIR      63  62  97 CALM      30.06F
QUANTICO       FAIR      68  65  90 NW8       30.07F
FREDERICKSBRG* FAIR      64  64 100 CALM      30.05F
STAFFORD*      FAIR      62  62 100 CALM      30.10F FOG
WARRENTON      FOG       58  58 100 CALM      30.07F VSB 1/4
CULPEPER*      FOG      N/A N/A N/A CALM      30.08F VSB 1
MANASSAS*      FAIR      63  63 100 CALM      30.07F
LEESBURG*      FAIR      64  64 100 CALM      30.08F
WINCHESTER     FAIR      61  59  94 CALM      30.09F
$$

VAZ048-049-060>072-079>083-270700-
CENTRAL AND SOUTH CENTRAL VIRGINIA...AND NORTH CENTRAL NORTH CAROLINA

CITY           SKY/WX    TMP DP  RH WIND       PRES   REMARKS
RICHMOND       FAIR      64  61  90 CALM      30.07F
CHESTERFIELD*  FAIR     N/A N/A N/A CALM      30.08F
HANOVER        FAIR      61  60  97 CALM      30.08F
TAPPAHANNOCK*  FAIR      60  57  91 CALM      30.07F
CHARLOTTSVILLE FAIR      61  60  97 CALM      30.08F
ORANGE*        FAIR      61  59  94 CALM      30.09F
LOUISA*        FOG       61  59  94 CALM      30.07F VSB 1/2
FARMVILLE*     FAIR      61  61 100 CALM      30.06F FOG
SOUTH HILL*    FAIR      61  61 100 CALM      30.12F
ROANOKE RAPIDS FAIR      55  55 100 CALM      30.06F
RALEIGH        FAIR      64  61  90 CALM      30.07F
$$

VAZ088>098-270700-
SOUTHEAST VIRGINIA

CITY           SKY/WX    TMP DP  RH WIND       PRES   REMARKS
NORFOLK        CLOUDY    73  68  84 NE7       30.05F
VIRGINIA BEACH FAIR      73  69  87 NE7       30.03F
NORFOLK NAVAL  MOCLDY    73  68  84 E8        30.06F
WEST POINT*    FAIR      60  58  92 CALM      30.07F
NEWPORT NEWS   FAIR      65  61  87 CALM      30.05F
LANGLEY AFB    FAIR      64  64 100 NW2       30.04F
FORT EUSTIS    FAIR      64 N/A N/A CALM      30.04F
WILLIAMSBURG*  FAIR      64  64 100 CALM      30.07F
FRANKLIN*      FAIR      57  57 100 CALM      30.06F
WAKEFIELD      FAIR      58  56  93 CALM      30.06F
$$

VAZ020-022-025-037-045-270700-
WESTERN AND SOUTHWEST VIRGINIA

CITY           SKY/WX    TMP DP  RH WIND       PRES   REMARKS
STAUNTON*      FAIR      56  53  91 CALM      30.14F
HOT SPRINGS VA FAIR      57  56  95 CALM      30.24F
LYNCHBURG      FAIR      60  59  96 CALM      30.11F
DANVILLE       FAIR      61  59  93 CALM      30.09S
MARTINSVILLE   FAIR      56  56 100 CALM      30.13F
ROANOKE        FAIR      61  58  90 CALM      30.15F
BLACKSBURG     FAIR      55  55 100 CALM      30.19F FOG
DUBLIN*        FAIR      57  57 100 CALM      30.19S
MARION*        FAIR     N/A N/A N/A CALM      30.23S
HILLSVILLE*    FAIR      55  54  97 CALM      30.19F FOG
RICHLANDS*     FAIR      67  56  69 E3        30.19F
WISE*          FAIR      63  54  72 CALM      30.20F
ABINGDON*      FAIR      62  56  81 E5        30.17S
$$

MDZ021>025-VAZ099-100-270700-
SOUTHERN MARYLAND AND THE DELMARVA PENINSULA

CITY           SKY/WX    TMP DP  RH WIND       PRES   REMARKS
PATUXENT RIVER FAIR      61  59  93 CALM      30.05F
BAY BRIDGE APT   N/A     68  63  83 CALM      30.06F
LEONARDTOWN    FAIR      61  59  94 CALM      30.07F
DOVER          FAIR      65  65 100 CALM      30.04F
GEORGETOWN     FAIR      59  57  93 SE3       30.06F FOG
EASTON         FAIR      64  64 100 CALM      30.09F
CAMBRIDGE      FAIR      61  59  94 CALM      30.06F
SALISBURY      FOG       60  58  92 CALM      30.06F VSB 1/4
OCEAN CITY     FOG       57  57 100 NW3       30.07S VSB 1/2
WALLOPS ISLAND FAIR      66  64  93 CALM      30.07F
ACCOMACK*      NOT AVBL
$$

NCZ012>017-030>032-270700-
EASTERN NORTH CAROLINA

CITY           SKY/WX    TMP DP  RH WIND       PRES   REMARKS
ELIZABETH CITY FAIR      70  69  97 N5        30.03F
AHOSKIE*       FAIR      59  57  93 CALM      30.06F
EDENTON*       FAIR      66  65  98 N6        30.03F
CURRITUCK*     FAIR      73  69  87 NE6       30.04F
KILL DEVIL HLS CLOUDY    74  71  89 N5        30.01F
MANTEO         MOCLDY    74  71  89 NE12      30.01F
CAPE HATTERAS  MOCLDY    74  73  97 NE12G20   29.98F
GOLDSBORO      FAIR      65  65  98 E3        30.03F
WASHINGTON     FAIR      66  64  94 CALM      30.04F
GREENVILLE     FAIR      63  63 100 CALM      30.06F
NEW BERN       FAIR      70  66  87 N9        30.03F
WILMINGTON     FAIR      68  64  87 N8        30.01F
$$

VAZ048-270700-
ELSEWHERE

CITY           SKY/WX    TMP DP  RH WIND       PRES   REMARKS
HARRISBURG PA  FAIR      68  63  84 CALM      30.06F
BALTIMORE      FAIR      64  61  90 CALM      30.06F
ANNAPOLIS      FAIR      70  66  87 CALM      30.05F
ANDREWS AFB    FAIR      65  64  99 SW5       30.06F
WILMINGTON DE  FAIR      68  62  81 CALM      30.08F
PHILADELPHIA   FAIR      70  63  78 SW5       30.08F
WILDWOOD NJ*   FAIR      61  57  88 CALM      30.07F
ATLANTIC CITY  FAIR      58  57  97 CALM      30.06F
HENDERSON NC   FOG       62  60  95 CALM      30.08S VSB 1/4
GREENSBORO     FAIR      65  60  84 N3        30.09F
ROCKY MOUNT    FAIR      59  57  93 CALM      30.06F
FAYETTEVILLE   FAIR      67  63  87 NE5       30.05F
CHARLOTTE      FAIR      62  58  86 N6        30.10F
$$

VAZ100-270700-
MARINE

STATION/POSITION TIME  TEMP    WIND        PRES    WAVE   SWELL
                       AIR SEA DIR/SP/G            HT/PER HT/PER
                 (UTC) (F)     (DEG/KT/KT) (MB)    (FT/S) (FT/S)
44066 TX TWR #4  0600   71 72  330/  4/  6 1017.7F   4/10   3/10
CAPE MAY NJ      0600   66 80  110/  2/  3 1017.6F
LEWES DE         0600   66 76  260/  3/  3 1017.7F
15NM E FENWICK I 0600   72 73              1017.8F   4/ 8
OCEAN-CITY-INLET 0600   68 76   10/  3/  4 1017.6S
WACHAPREAGUE VA  0600   67 77  350/  3/  4 1017.9F
THOMAS POINT MD  0600   73 78  250/  4/  5 1018.6F
GOOSES REEF MD   0600   74     230/  4/  6 1018.3F
COVE POINT MD    0600   72     270/  3/  4 1017.7F
SOLOMONS ISLAND  0600      80                N/A
BISHOPS HEAD MD  0600   70 76   70/  3/  5 1017.6F
PINEY POINT MD   0600           80/  2/  3   N/A
POTOMAC MD       0600   74      60/  2/  2 1017.5R
CAMBRIDGE MD     0600   68 78  180/  1/  1 1017.5F
LEWISETTA VA     0600   69 77  230/  2/  2 1017.5F
RAPPAHANNOCK LGT 0600           60/  7/  8 1018.4F
STINGRAY PT      0600   73      80/  6/  8   N/A
YORK RVR RNG VA  0600   73      80/  6/  9 1017.3F
YORKTOWN VA      0600   72 79   50/  6/  6 1017.5F
JAMESTOWN VA     0600   68      80/  4/  6   N/A
DOMINION TERM VA 0600   71      30/  3/  5 1017.7F
KIPTOPEKE VA     0600      80   40/  4/  5   N/A
CHES BAY BRIDGE  0600   73 77   40/ 11/ 13 1017.1F
CAPE HENRY VA    0600   73      50/ 11/ 13 1016.4F
CHESAPEAKE LGHT  0500   73      50/ 14/ 14 1018.4F
WILLOUBY STN VA  0600   73      40/  8/ 10 1016.3F
S CRANEY ISL VA  0600           20/  5/  6 1017.3F
CAPE HENRY BUOY  0600      76                N/A     4/ 8   2/13
1ST LANDING BUOY 0600   74      60/ 10/ 14 1017.3F
CAPE CHARLES BUO 0600      76                N/A     4/ 8   3/ 8
OFFSHORE WE BUOY 0600      75                N/A     5/13   5/13
64NM E OF VA BCH 0600   77 78   50/ 16/ 17 1016.2F   6/ 9   5/ 9
DUCK PIER NC     0600   75 76   30/ 12/ 13 1016.0F
44056 DUCK FRF   0600                        N/A     5/13   2/13
OREGON INLET NC  0600   75 78   20/ 13/ 17 1015.8F
HATTERAS NC      0600   76 79   20/ 15/ 21 1015.6F
DIAMOND SHLS NC  0600   76     360/ 21/ 23 1013.9F   8/11   7/11
CAPE LOOKOUT NC  0500   74      10/ 16/ 20 1015.6F
$$


USA.gov is the U.S. government's official web portal to all federal, state and local government web resources and services.